Weather History for Marion, VA

Change the Weather History Date:

Thursday, April 4, 2013

  Actual Average (KGEV) Record (KGEV)
Temperature  
Mean Temperature 36 °F -  
Max Temperature 40 °F 61 °F 78 °F (1978)
Min Temperature 33 °F 37 °F 21 °F (1987)
Degree Days  
Heating Degree Days 28    
Moisture  
Dew Point 25 °F    
Average Humidity 70    
Maximum Humidity 100    
Minimum Humidity 36    
Precipitation  
Precipitation 0.77 in - - ()
Sea Level Pressure  
Sea Level Pressure 30.18 in    
Wind  
Wind Speed 7 mph (East)    
Max Wind Speed 16 mph    
Max Gust Speed 22 mph    
Visibility 7 miles    
Events Rain , Snow    
Averages and records for this station are not official NWS values.
T = Trace of Precipitation, MM = Missing Value Source: NWS Daily Summary

Daily Weather History Graph

Daily Weather History Graph

Search for Another Location

Airport:

Trip Planner

Search our weather history database for the weather conditions in past years. The results will help you decide how hot, cold, wet, or windy it might be!

Date:

Astronomy

Apr. 04, 2013 Rise Set
Actual Time 7:06 AM EDT 7:50 PM EDT
Civil Twilight 6:40 AM EDT 8:16 PM EDT
Nautical Twilight 6:09 AM EDT 8:47 PM EDT
Astronomical Twilight 5:37 AM EDT 9:19 PM EDT
Moon 3:23 AM EDT (4/4) 2:15 PM EDT (4/4)
Length of Visible Light 13h 36m
Length of Day
12h 44m
Waning Crescent, 34% of the Moon is Illuminated
Apr 4
Waning Crescent
Apr 10
New
Apr 18
First Quarter
Apr 25
Full
May 2
Last Quarter

Hourly Weather History & Observations

Time (EDT) Temp. Windchill Dew Point Humidity Pressure Visibility Wind Dir Wind Speed Gust Speed Precip Events Conditions
12:15 AM 35.6 °F - 21.7 °F 57% 30.30 in 10.0 mi Calm Calm - N/A   Clear
12:35 AM 36.0 °F - 19.8 °F 52% 30.28 in 10.0 mi Calm Calm - N/A   Clear
12:55 AM 37.2 °F 33.6 °F 16.2 °F 42% 30.28 in 10.0 mi East 4.6 mph - N/A   Clear
1:15 AM 36.5 °F 33.9 °F 17.6 °F 46% 30.28 in 10.0 mi East 3.5 mph - N/A   Clear
1:35 AM 36.3 °F 30.8 °F 16.7 °F 45% 30.27 in 10.0 mi East 6.9 mph - N/A   Clear
1:55 AM 35.8 °F 33.0 °F 17.4 °F 47% 30.26 in 10.0 mi East 3.5 mph - N/A   Clear
2:15 AM 36.1 °F 32.3 °F 16.7 °F 45% 30.26 in 10.0 mi ENE 4.6 mph - N/A   Clear
2:35 AM 35.6 °F 32.8 °F 18.5 °F 50% 30.27 in 10.0 mi ENE 3.5 mph - N/A   Clear
2:55 AM 35.2 °F 30.3 °F 17.1 °F 48% 30.27 in 10.0 mi ENE 5.8 mph - N/A   Clear
3:15 AM 34.9 °F 29.9 °F 17.8 °F 50% 30.26 in 10.0 mi ENE 5.8 mph - N/A   Clear
3:35 AM 35.4 °F 30.5 °F 16.9 °F 47% 30.26 in 10.0 mi ENE 5.8 mph - N/A   Clear
3:55 AM 35.8 °F 30.1 °F 15.8 °F 44% 30.26 in 10.0 mi NE 6.9 mph - N/A   Clear
4:15 AM 36.1 °F 30.6 °F 15.3 °F 43% 30.26 in 10.0 mi ENE 6.9 mph - N/A   Clear
4:35 AM 36.1 °F 30.6 °F 14.0 °F 40% 30.25 in 10.0 mi ENE 6.9 mph - N/A   Clear
4:55 AM 35.2 °F 29.5 °F 14.2 °F 42% 30.24 in 10.0 mi ENE 6.9 mph - N/A   Clear
5:15 AM 34.9 °F 29.0 °F 14.7 °F 44% 30.24 in 10.0 mi East 6.9 mph - N/A   Clear
5:35 AM 34.7 °F 30.6 °F 15.8 °F 46% 30.24 in 10.0 mi ESE 4.6 mph - N/A   Clear
5:55 AM 34.7 °F 30.6 °F 15.6 °F 46% 30.25 in 10.0 mi ESE 4.6 mph - N/A   Clear
6:15 AM 34.9 °F 26.2 °F 15.6 °F 45% 30.25 in 10.0 mi ENE 12.7 mph - N/A   Clear
6:35 AM 34.9 °F 27.7 °F 16.5 °F 47% 30.26 in 10.0 mi NE 9.2 mph - N/A   Clear
6:55 AM 34.7 °F 26.9 °F 17.4 °F 49% 30.26 in 10.0 mi NE 10.4 mph - N/A   Clear
7:15 AM 34.7 °F 26.9 °F 17.4 °F 49% 30.28 in 10.0 mi NE 10.4 mph - N/A   Clear
7:35 AM 34.9 °F 27.7 °F 17.6 °F 49% 30.28 in 10.0 mi ENE 9.2 mph - N/A   Clear
7:55 AM 35.6 °F 28.6 °F 17.8 °F 48% 30.28 in 10.0 mi ENE 9.2 mph - N/A   Clear
8:15 AM 36.0 °F 28.5 °F 17.1 °F 46% 30.28 in 10.0 mi ENE 10.4 mph - N/A   Clear
8:35 AM 36.5 °F 29.7 °F 17.8 °F 47% 30.28 in 10.0 mi ENE 9.2 mph - N/A   Clear
8:55 AM 36.9 °F 30.1 °F 17.8 °F 46% 30.27 in 10.0 mi ENE 9.2 mph - N/A   Clear
9:15 AM 38.1 °F 31.2 °F 17.8 °F 44% 30.26 in 10.0 mi East 10.4 mph 17.3 mph N/A   Clear
9:35 AM 38.5 °F 29.9 °F 14.4 °F 37% 30.25 in 10.0 mi East 15.0 mph 18.4 mph N/A   Clear
9:55 AM 39.6 °F 32.1 °F 14.4 °F 36% 30.24 in 10.0 mi East 12.7 mph 21.9 mph N/A   Scattered Clouds
10:15 AM 39.4 °F 31.1 °F 15.8 °F 38% 30.24 in 10.0 mi East 15.0 mph 20.7 mph N/A   Mostly Cloudy
10:35 AM 39.2 °F 30.8 °F 17.1 °F 41% 30.23 in 10.0 mi East 15.0 mph 19.6 mph N/A   Overcast
10:55 AM 40.1 °F 31.6 °F 18.1 °F 41% 30.23 in 10.0 mi East 16.1 mph - N/A   Overcast
11:15 AM 40.1 °F 32.4 °F 18.7 °F 42% 30.22 in 10.0 mi East 13.8 mph 20.7 mph N/A   Overcast
11:35 AM 39.4 °F 31.1 °F 19.0 °F 44% 30.21 in 10.0 mi East 15.0 mph 19.6 mph N/A   Overcast
11:55 AM 39.7 °F 32.3 °F 20.8 °F 47% 30.21 in 10.0 mi ESE 12.7 mph 16.1 mph N/A Rain Light Rain
12:35 PM 37.6 °F 30.0 °F 25.9 °F 63% 30.20 in 10.0 mi East 11.5 mph - N/A Rain Light Rain
12:55 PM 37.0 °F 31.0 °F 27.3 °F 68% 30.20 in 10.0 mi East 8.1 mph - N/A Rain Light Rain
1:15 PM 36.5 °F 31.0 °F 28.9 °F 74% 30.22 in 5.0 mi ESE 6.9 mph - N/A Rain Rain
1:35 PM 35.8 °F 28.8 °F 30.0 °F 80% 30.21 in 5.0 mi ENE 9.2 mph - 0.01 in Rain Rain
1:55 PM 35.1 °F 27.4 °F 31.1 °F 85% 30.18 in 4.0 mi ENE 10.4 mph - 0.07 in Rain Rain
2:15 PM 34.9 °F 29.0 °F 31.8 °F 89% 30.20 in 7.0 mi NE 6.9 mph - 0.04 in Rain Light Rain
2:35 PM 34.2 °F 27.5 °F 33.1 °F 96% 30.19 in 1.5 mi NE 8.1 mph - 0.07 in Snow Light Snow
2:55 PM 34.0 °F 26.0 °F 33.8 °F 99% 30.18 in 3.0 mi ENE 10.4 mph - 0.13 in Snow Light Snow
3:15 PM 33.8 °F 26.4 °F 33.8 °F 100% 30.16 in 0.8 mi ENE 9.2 mph - 0.05 in Snow Light Snow
3:35 PM 34.2 °F 26.2 °F 34.2 °F 100% 30.14 in 1.5 mi ENE 10.4 mph - 0.15 in Snow Light Snow
3:55 PM 34.2 °F 26.2 °F 34.2 °F 100% 30.14 in 3.0 mi ENE 10.4 mph - 0.24 in Snow Light Snow
4:15 PM 34.3 °F 27.0 °F 34.2 °F 99% 30.14 in 3.0 mi East 9.2 mph - 0.05 in Rain Light Rain
4:35 PM 34.3 °F 27.0 °F 34.3 °F 100% 30.15 in 1.0 mi East 9.2 mph - 0.08 in Snow Light Snow
4:55 PM 34.2 °F 27.5 °F 34.2 °F 100% 30.14 in 0.2 mi East 8.1 mph - 0.12 in Snow Snow
5:15 PM 34.2 °F 25.7 °F 34.2 °F 100% 30.12 in 2.0 mi ENE 11.5 mph - 0.06 in Snow Light Snow
5:35 PM 34.7 °F 28.1 °F 34.7 °F 100% 30.12 in 3.0 mi ENE 8.1 mph - 0.10 in Rain Light Rain
5:55 PM 34.2 °F 27.5 °F 34.2 °F 100% 30.10 in 3.0 mi ENE 8.1 mph - 0.12 in Rain Rain
6:15 PM 34.2 °F 27.5 °F 34.2 °F 100% 30.10 in 3.0 mi ENE 8.1 mph - 0.05 in Snow Light Snow
6:35 PM 34.2 °F 25.2 °F 34.2 °F 100% 30.08 in 5.0 mi East 12.7 mph - 0.06 in Rain Light Rain
6:55 PM 34.7 °F 28.8 °F 34.7 °F 100% 30.07 in 7.0 mi ENE 6.9 mph - 0.06 in Rain Light Rain
7:15 PM 34.7 °F 27.5 °F 34.7 °F 100% 30.06 in 7.0 mi ESE 9.2 mph - N/A Rain Rain
7:35 PM 34.7 °F 29.6 °F 34.7 °F 100% 30.05 in 5.0 mi East 5.8 mph - N/A   Drizzle
7:55 PM 34.3 °F 27.0 °F 34.3 °F 100% 30.03 in 2.5 mi ESE 9.2 mph - N/A   Drizzle
8:15 PM 34.3 °F 28.4 °F 34.3 °F 100% 30.03 in 3.0 mi East 6.9 mph - N/A   Drizzle
8:35 PM 34.3 °F 27.7 °F 34.3 °F 100% 30.02 in 4.0 mi East 8.1 mph - N/A   Drizzle
8:55 PM 34.3 °F 28.4 °F 34.3 °F 100% 30.02 in 5.0 mi East 6.9 mph - N/A Rain Light Rain
9:15 PM 34.3 °F 28.4 °F 34.3 °F 100% 30.02 in 4.0 mi East 6.9 mph - N/A   Drizzle
9:35 PM 34.7 °F 30.6 °F 34.7 °F 100% 30.02 in 3.0 mi East 4.6 mph - N/A   Drizzle
9:55 PM 34.7 °F 30.6 °F 34.7 °F 100% 30.02 in 3.0 mi East 4.6 mph - N/A   Drizzle
10:15 PM 34.5 °F 28.6 °F 34.5 °F 100% 30.01 in 5.0 mi East 6.9 mph - N/A   Light Drizzle
10:35 PM 34.5 °F 30.4 °F 34.5 °F 100% 30.01 in 7.0 mi East 4.6 mph - N/A   Overcast
10:55 PM 34.7 °F 28.8 °F 34.7 °F 100% 30.00 in 2.5 mi East 6.9 mph - N/A Rain Light Rain
11:15 PM 34.7 °F 30.6 °F 34.7 °F 100% 30.00 in 2.5 mi East 4.6 mph - 0.03 in Rain Light Rain
11:35 PM 34.9 °F 32.0 °F 34.9 °F 100% 30.00 in 5.0 mi East 3.5 mph - 0.03 in Rain Rain
11:55 PM 34.9 °F 32.0 °F 34.9 °F 100% 29.99 in 4.0 mi East 3.5 mph - 0.03 in   Drizzle